sat.trackr.live / text

‹ back to catalog

STARLINK-37546

NORAD 69467 · 2026-127AA

PAYLOAD ACTIVE UNKNOWN

§ Identity

Operator
Country
US
Launch date
2026-06-08
Launch site
AFETR
Launch vehicle
Mass (kg)
RCS (m²)

Purposes: comms

External: N2YO · Heavens-Above · Gunter

§ Orbital elements

Epoch: 2026-09-20T03:04:30.889056Z

Period
93.85 min
Inclination
53.1592°
Eccentricity
0.0001595
Mean motion
15.34389910 rev/d
Perigee alt
461.6 km
Apogee alt
463.8 km
Semi-major
6,840.9 km
B*
6.4429e-4
RAAN
167.5404°
Arg perigee
91.6308°
Mean anomaly
268.4878°
Rev number
1,613

§ Raw data

STARLINK-375461 69467U 26127AA  26263.12813529  .00021447  00000+0  64429-3 0  99952 69467  53.1592 167.5404 0001595  91.6308 268.4878 15.34389910 16130

JSON: /api/v1/satellites/69467 · /tle

For live sub-satellite position, see the globe view (requires WebGL).

§ Visibility from observer

Set your observer location to see the next 7 days of passes ≥ 10°. The values pass through the URL so the page stays shareable.

No JS? Fill the form by hand. The geolocation button needs JavaScript.